Theta_e
307 306 306 306 306 306 306 306 306 306 306 307 307 307 308 307 307 306 303 302 302 301 302 301 302 302 303 303 302 303 302 303 306 305 306 309 308 306 304 304 304 303 303 304 305 306 305 305 305 306 306 305 308 311 312 315 321 327 329 331 333 331 328 328 327 326 326 326 331 335 337 338 336 333 331 331 330 330 328 325 325 324 322 323 322 321 320 320
306 306 306 306 306 306 306 306 306 306 306 307 307 307 306 305 304 304 302 302 301 302 302 302 303 302 303 303 303 303 302 305 308 307 307 308 305 303 303 303 303 303 304 306 305 305 305 305 305 306 306 306 307 311 313 315 322 327 329 332 332 330 328 326 327 327 325 330 335 335 337 338 336 334 332 333 332 329 329 327 325 324 322 321 320 320 320 319
306 306 306 306 305 305 305 306 306 306 306 306 307 306 306 304 304 303 302 301 301 302 302 303 303 303 303 303 303 303 304 309 310 308 308 305 303 303 303 303 303 303 305 305 305 305 305 305 305 305 305 305 306 309 313 316 322 325 328 331 330 328 327 325 326 327 328 334 336 334 336 338 335 334 334 334 332 331 331 328 326 326 324 322 320 319 319 319
306 305 306 306 305 305 305 305 305 306 306 306 306 306 305 304 303 302 301 301 301 301 302 302 302 303 303 303 303 303 308 312 308 307 307 303 302 303 303 303 303 303 304 305 304 305 305 305 305 304 305 305 305 307 310 314 320 323 326 329 329 327 327 326 325 330 335 337 338 336 335 337 334 333 334 334 333 333 332 328 327 326 323 322 320 319 319 319
305 305 305 305 305 305 305 305 304 305 305 305 305 306 305 304 303 302 301 301 301 302 302 302 302 302 303 303 303 305 310 310 305 305 305 303 302 303 303 303 303 303 303 304 304 304 305 305 305 305 305 304 305 306 307 311 317 321 324 325 327 327 327 325 326 337 340 337 337 337 335 334 332 334 334 334 335 335 332 328 326 323 321 321 320 319 320 320
305 305 305 305 305 305 305 304 304 304 304 304 305 305 304 304 303 301 301 301 301 302 301 302 302 302 302 302 303 307 310 308 305 305 303 303 303 303 303 303 303 303 304 305 304 304 304 305 305 305 304 304 305 305 306 310 315 319 321 321 324 326 327 326 329 337 340 338 337 335 334 332 332 334 334 334 333 333 331 327 323 322 321 320 320 320 320 320
305 305 305 304 304 304 304 304 304 304 305 305 305 305 304 304 303 301 301 301 301 301 301 302 301 302 301 302 304 309 310 307 305 305 303 303 303 303 304 303 303 304 305 305 304 304 304 304 305 304 304 304 304 305 306 309 313 318 318 318 321 325 326 327 330 334 336 337 336 334 333 332 333 335 334 331 328 328 327 323 321 321 321 320 320 320 321 321
304 304 304 304 304 304 304 304 304 304 305 304 304 304 304 304 303 301 301 301 301 301 302 301 302 302 300 303 308 309 308 306 304 304 304 304 303 303 303 303 304 304 305 304 304 304 304 304 304 305 305 304 305 305 306 308 310 315 317 318 321 324 327 328 330 332 333 335 334 333 333 333 334 334 332 329 326 324 323 321 321 320 320 321 321 321 321 322
304 304 304 304 304 304 304 304 304 304 304 304 304 304 304 303 302 301 301 301 301 301 302 301 302 301 301 307 311 309 306 305 304 304 304 304 304 303 303 303 304 304 305 304 304 304 304 304 304 305 305 305 304 305 306 307 308 312 316 318 320 324 327 330 331 330 331 333 333 332 334 334 333 332 330 327 324 323 322 321 321 320 321 321 321 322 322 321
304 304 304 304 304 304 304 304 304 304 303 303 303 303 303 302 301 301 301 301 301 302 301 301 301 301 305 309 310 308 306 304 304 304 304 304 304 303 303 303 304 304 305 304 305 304 304 304 304 305 305 305 305 305 306 306 308 312 315 317 319 323 329 330 330 329 329 331 331 332 335 332 331 332 329 325 323 322 321 321 321 321 321 321 322 322 320 319
303 304 304 304 304 304 304 304 304 304 303 303 303 303 302 301 301 301 302 301 302 302 301 301 301 302 307 309 308 308 306 304 305 304 304 304 303 304 303 304 304 304 304 305 305 305 305 305 305 306 306 306 305 305 306 307 309 312 315 318 319 324 329 329 329 329 329 329 328 330 332 330 330 333 329 324 323 322 322 322 321 321 321 321 321 320 318 316
303 303 304 304 304 304 303 303 304 304 303 303 303 302 302 301 301 301 301 302 302 301 301 301 302 305 309 309 308 308 304 304 305 304 304 304 303 304 304 304 304 304 305 305 305 305 306 306 306 306 306 306 305 304 306 311 313 312 315 319 321 326 328 328 328 329 330 328 326 327 330 329 330 330 325 323 322 321 322 322 321 321 321 320 319 318 317 315
303 303 304 304 304 303 303 303 304 303 302 302 302 302 301 301 301 301 301 302 302 301 301 301 303 308 310 309 308 306 304 304 304 304 305 304 304 304 304 304 304 304 304 304 305 305 306 306 307 306 306 306 306 305 308 312 314 315 317 319 320 324 326 327 328 327 329 328 325 327 332 331 329 327 323 322 322 321 322 322 321 320 320 319 318 317 315 314
302 303 304 304 304 303 303 303 303 303 302 302 302 301 301 301 301 302 302 301 301 301 301 301 305 309 310 309 307 306 305 305 305 305 304 304 304 305 305 305 305 305 304 304 305 304 305 305 306 306 306 306 306 307 308 310 313 316 318 320 320 322 325 326 328 328 329 328 326 329 335 332 327 325 323 322 322 322 323 322 321 320 319 318 317 316 314 314
302 303 304 304 303 303 303 303 302 302 302 302 301 301 301 301 302 302 301 301 301 301 301 303 308 309 309 307 307 306 306 306 306 305 304 304 305 305 305 305 305 305 305 305 305 305 305 305 305 306 306 305 305 306 307 310 315 315 318 320 320 322 326 327 328 328 328 328 327 330 334 330 325 324 323 322 322 322 322 322 320 319 318 318 316 314 314 313
302 303 304 303 303 303 303 303 302 302 302 301 301 301 301 301 301 301 301 300 301 301 303 308 311 309 308 308 307 306 307 307 306 305 305 305 305 305 305 305 305 305 305 305 305 304 305 305 305 306 306 306 305 305 306 310 315 316 317 320 321 322 326 328 327 326 327 327 327 330 333 329 325 323 322 322 322 322 322 321 320 319 317 317 316 314 313 313
302 303 303 303 303 303 302 303 303 302 301 301 300 301 301 302 302 301 300 300 301 302 304 310 311 308 308 308 306 306 306 306 305 305 305 305 305 305 305 305 306 306 306 306 305 305 305 305 305 305 306 306 306 306 306 310 314 316 317 319 320 321 325 328 326 325 326 327 328 330 331 328 324 322 322 322 322 323 322 321 319 318 317 316 315 314 313 313
302 303 303 303 303 303 303 302 302 301 301 300 301 301 301 301 301 301 300 301 305 306 306 308 308 307 307 307 306 306 306 305 305 305 305 306 306 306 306 306 307 306 307 307 306 306 305 305 305 305 305 305 306 308 310 310 313 316 318 319 320 321 324 325 325 325 326 328 328 329 330 327 323 322 322 322 322 323 321 319 319 317 317 316 315 314 314 313
302 303 303 303 303 302 302 302 301 301 300 300 301 300 301 302 302 302 301 303 308 308 306 306 306 306 306 306 306 306 305 305 305 306 306 307 307 306 307 306 307 307 307 307 306 306 306 306 306 305 306 305 305 309 312 312 314 316 318 319 320 322 324 325 325 325 326 328 328 329 328 325 323 323 322 322 322 323 320 318 318 317 317 316 315 315 314 313
302 303 303 303 302 300 300 300 301 301 300 301 300 301 305 305 306 306 303 305 307 305 305 307 306 306 306 306 307 306 305 305 306 307 307 307 306 306 307 308 308 308 307 307 307 306 306 306 306 305 306 307 309 312 314 314 315 315 316 318 320 323 324 324 324 324 325 328 328 328 326 323 323 322 322 322 322 322 320 318 318 318 317 316 316 315 315 314
302 303 303 303 301 299 299 300 301 301 301 300 300 304 307 305 307 307 303 305 306 304 305 306 304 306 306 305 307 305 304 306 308 308 308 307 307 307 308 308 308 308 307 307 307 307 307 306 305 307 309 311 312 314 315 316 315 315 315 317 320 322 321 321 322 324 325 327 328 327 325 323 322 322 322 322 322 322 320 319 318 318 317 317 316 316 315 314
302 303 303 303 301 299 300 300 301 300 300 300 302 306 306 302 302 301 301 305 306 305 306 306 305 307 306 306 307 305 305 307 309 309 308 308 309 309 308 308 307 306 307 307 306 306 307 306 306 310 312 312 313 314 315 315 315 316 315 316 319 319 317 319 321 324 325 326 327 326 325 324 322 321 322 321 322 322 320 319 318 317 318 317 316 316 316 314
302 303 303 303 300 299 300 300 300 299 301 304 307 307 304 300 299 298 302 306 306 306 307 306 307 307 307 308 307 304 305 308 309 309 308 308 310 310 309 309 308 307 307 307 305 306 309 309 310 312 312 313 315 315 315 315 316 316 315 317 320 318 318 319 320 323 325 326 326 325 324 324 322 322 321 321 321 321 321 320 319 318 318 318 317 317 316 314
302 302 303 302 299 299 300 299 300 301 302 304 305 302 300 299 298 299 304 307 307 307 307 305 305 307 307 306 304 305 306 308 309 309 308 308 309 310 311 310 310 310 309 308 309 311 312 311 312 312 312 314 315 315 314 314 317 318 316 318 319 319 320 319 319 322 323 324 324 323 323 322 321 323 322 321 322 322 321 321 320 319 319 319 318 317 317 315
302 303 303 301 299 300 300 300 304 303 302 304 302 299 299 299 299 299 304 308 306 306 307 306 306 307 306 304 304 306 307 308 309 309 307 307 307 309 311 310 311 311 311 311 312 313 312 311 312 314 315 314 314 315 313 313 318 320 318 319 319 319 321 320 319 321 322 323 323 322 325 324 320 322 323 322 322 322 322 321 320 320 319 319 319 318 317 316
302 303 301 299 299 300 300 304 305 300 303 307 303 298 299 299 299 298 303 309 307 304 306 308 309 308 306 306 307 307 309 309 309 308 308 307 306 308 310 311 311 311 311 312 312 312 312 310 310 313 316 315 314 315 313 312 319 322 319 319 320 320 321 321 321 322 323 324 321 321 326 325 321 322 322 321 323 323 322 322 321 320 320 319 319 318 318 317
303 302 299 298 299 300 303 306 302 299 306 307 300 298 299 300 299 300 306 310 306 304 305 307 309 307 306 308 307 308 311 311 309 309 308 307 307 308 309 311 313 313 312 313 314 312 310 309 308 311 316 316 314 315 313 312 319 322 317 318 321 320 320 321 322 323 322 322 321 319 323 325 323 323 322 320 322 323 322 322 322 320 320 319 319 319 319 318
303 300 297 298 299 299 303 304 302 304 306 303 299 299 299 299 299 302 308 309 303 303 305 307 308 306 306 308 308 310 311 310 311 311 308 307 308 309 311 313 314 313 312 314 316 312 308 308 308 309 314 316 314 313 311 312 318 319 316 316 318 318 319 320 321 322 321 323 324 321 321 326 326 323 322 321 323 324 322 322 322 321 320 319 319 320 319 319
302 300 297 298 299 299 299 302 305 306 303 300 300 299 299 299 300 305 309 306 302 303 305 307 307 307 307 308 310 311 310 310 311 311 309 309 308 309 312 312 312 313 312 312 313 311 308 307 305 306 311 314 312 311 311 314 319 318 315 315 316 317 318 319 320 321 322 325 326 322 320 326 327 324 323 323 323 325 323 322 322 322 321 320 320 320 320 320
301 299 297 298 302 303 301 301 304 303 300 300 299 298 298 300 304 309 307 303 303 304 305 307 308 308 308 308 309 310 310 310 311 311 311 312 311 310 311 309 311 314 313 311 311 310 308 306 304 306 308 309 308 311 314 317 319 318 316 316 316 316 317 318 317 318 324 327 325 321 319 323 328 325 323 324 324 324 323 322 322 323 322 321 321 320 320 320
301 298 297 299 304 305 304 305 302 299 300 299 297 298 301 304 308 309 304 303 306 306 305 306 307 307 307 307 308 309 310 310 311 312 312 312 313 312 310 310 311 314 314 314 313 311 310 309 308 308 307 306 309 314 318 319 319 320 318 317 319 320 320 321 319 320 326 327 323 320 317 322 329 327 322 323 324 323 323 323 322 323 322 321 321 321 321 321
300 297 297 299 301 300 303 305 301 299 299 298 298 302 305 308 308 305 302 305 309 307 305 305 306 306 306 307 309 309 308 310 311 312 312 313 313 311 310 309 309 313 317 317 315 315 313 311 310 310 308 308 312 317 319 319 319 320 319 320 324 325 324 326 325 324 325 325 322 320 320 325 329 326 323 324 325 324 324 324 322 322 322 321 321 321 321 321
299 297 297 298 299 299 301 300 298 299 298 298 301 305 306 308 307 306 304 305 307 305 304 305 305 306 306 308 308 307 309 311 311 311 312 313 313 311 310 309 307 311 316 316 316 318 317 313 311 312 310 309 311 316 320 319 316 317 318 319 324 327 327 327 326 325 325 324 322 320 321 326 327 326 323 321 321 320 321 323 323 321 322 322 322 322 322 322
300 298 297 297 298 299 299 297 298 298 298 301 304 306 307 306 306 307 306 304 304 303 303 305 304 306 308 308 307 307 309 312 310 310 312 311 311 311 310 309 308 308 311 314 315 317 318 317 315 313 311 310 311 312 315 317 316 315 315 317 321 323 325 326 326 326 326 324 322 321 323 325 327 324 317 314 314 314 315 320 322 322 322 323 322 321 322 321
301 298 297 299 299 298 298 297 298 298 300 304 306 308 309 305 304 307 306 305 304 303 304 304 304 306 308 307 308 307 307 311 311 310 310 310 310 309 309 308 308 306 308 313 316 316 318 318 316 313 310 310 312 310 310 315 319 317 315 316 319 318 318 321 322 322 324 324 322 321 321 321 323 320 313 312 313 312 313 316 319 321 322 323 322 321 320 320
304 301 299 302 301 297 297 298 298 298 301 305 307 310 309 303 303 306 306 305 305 304 305 305 305 306 307 307 308 308 307 308 311 310 309 309 308 308 309 308 307 306 306 310 314 316 318 319 316 314 312 312 313 311 310 314 320 320 317 317 316 313 314 319 321 319 322 324 321 320 319 318 319 318 314 314 313 312 314 315 315 318 320 321 322 321 321 320
306 304 301 303 300 296 297 298 298 299 302 306 309 310 305 301 302 304 304 304 304 302 303 305 306 305 306 307 307 307 307 308 310 310 310 311 310 308 307 307 307 307 305 307 311 315 317 319 317 315 315 314 310 310 310 310 312 316 316 314 313 313 314 318 322 322 323 323 321 319 320 319 319 318 315 313 313 313 314 315 315 316 318 319 320 320 321 321
305 303 302 303 299 296 297 297 298 301 304 307 309 307 303 301 300 300 301 302 302 301 302 305 306 305 305 307 307 307 307 309 309 309 309 311 311 308 306 306 307 307 305 305 309 312 313 318 319 315 316 315 309 310 314 310 309 314 314 311 313 316 318 317 319 323 323 321 319 317 315 314 315 314 313 314 314 313 314 315 316 316 317 318 318 318 317 318
304 303 304 302 298 297 297 297 299 303 305 308 311 308 303 300 299 298 299 300 300 301 303 304 304 305 305 305 307 307 307 308 308 309 310 310 310 309 306 305 305 305 305 305 308 310 311 317 321 317 316 316 311 310 311 308 309 312 312 310 310 312 314 313 312 317 320 320 319 317 312 310 309 307 310 313 313 313 314 315 316 317 318 319 318 317 316 316
304 306 305 300 296 297 297 298 302 306 307 308 309 307 301 300 300 298 298 300 300 300 303 304 303 304 305 305 305 305 306 307 307 308 309 308 310 309 304 302 303 303 303 305 307 309 311 317 319 317 316 315 312 308 305 304 306 309 309 308 306 306 310 311 308 309 315 319 320 316 311 308 305 304 307 310 310 312 314 317 319 319 320 320 318 317 316 316
304 307 305 298 296 297 299 302 305 306 307 306 305 302 299 300 301 299 299 299 299 299 300 302 303 304 304 304 304 303 304 306 307 307 308 308 310 310 304 302 302 302 303 307 309 308 311 315 317 316 316 314 310 305 302 302 303 304 306 305 303 304 310 314 312 309 311 314 314 315 312 307 304 305 306 307 308 309 312 318 321 319 318 318 318 317 317 316
305 307 304 298 296 298 302 307 305 303 306 305 302 301 300 301 301 300 299 298 299 299 298 299 302 304 304 304 303 303 303 306 307 308 307 307 308 307 305 303 302 302 303 308 310 306 306 311 315 315 314 311 307 301 299 299 299 301 304 303 304 305 308 313 315 312 312 310 311 317 316 308 305 305 305 306 307 306 308 313 317 316 316 316 316 316 316 316
307 305 300 297 296 299 305 309 306 305 304 300 298 298 299 300 300 299 298 298 299 300 298 299 301 302 303 303 302 303 303 306 308 308 306 307 307 305 303 303 304 303 305 308 309 307 306 311 316 317 313 309 304 300 298 298 300 305 306 304 304 304 305 308 308 309 314 312 312 319 317 307 306 305 303 305 306 305 306 308 311 314 314 314 314 314 314 315
306 304 301 299 297 300 307 310 309 308 303 298 298 298 297 298 299 299 298 298 300 300 299 300 301 301 301 301 302 303 304 306 308 308 307 307 307 304 302 303 303 304 306 307 307 308 309 310 313 316 316 314 311 308 308 306 306 308 308 306 306 305 306 308 308 312 315 308 306 316 315 307 306 306 303 304 306 305 305 305 308 312 313 313 313 312 313 313
304 303 303 301 298 301 305 305 306 307 303 301 301 299 299 299 299 300 299 298 299 298 299 301 300 300 300 300 302 303 303 305 306 307 308 308 307 305 303 303 303 303 304 302 301 305 307 306 310 316 316 314 314 313 312 310 307 306 309 309 308 307 307 309 314 318 315 308 308 314 312 306 305 307 305 305 306 306 306 305 306 309 310 311 313 313 312 312
304 304 304 302 301 303 302 300 302 305 304 303 303 301 301 301 300 299 300 299 298 297 298 299 299 300 301 302 304 303 304 305 305 306 308 307 307 307 304 303 303 303 303 302 301 303 306 306 307 313 314 310 310 309 304 303 306 309 311 310 308 308 307 310 318 318 311 310 312 310 310 307 304 305 306 306 307 307 308 307 306 309 309 310 312 313 312 312
303 306 306 304 303 304 304 302 302 304 305 304 305 303 301 302 302 300 299 299 298 298 298 297 298 301 303 304 305 305 305 306 305 306 308 307 307 307 305 303 303 304 305 305 303 303 309 310 304 307 310 305 304 304 299 298 303 306 307 307 307 308 309 312 317 314 309 314 313 308 309 311 307 306 307 307 307 308 309 308 307 309 310 309 311 312 311 311
303 305 304 304 305 306 306 305 303 305 306 305 304 302 302 303 303 302 301 299 298 298 299 300 300 302 304 304 306 307 307 307 307 308 308 307 308 308 308 306 305 305 305 305 303 303 310 311 303 304 309 303 299 300 298 297 300 301 302 304 305 307 308 309 310 309 310 316 315 308 308 312 311 310 309 308 309 309 309 308 306 305 306 306 307 310 310 310
301 302 301 301 305 306 304 305 305 306 306 305 303 302 303 304 304 303 301 299 298 298 300 302 304 304 303 303 304 307 309 309 309 309 308 308 308 309 310 308 306 305 305 306 304 302 308 311 303 303 310 306 300 299 297 296 298 301 302 303 304 305 306 306 307 307 307 310 311 308 308 312 312 310 309 309 310 310 309 307 306 306 306 305 305 307 309 310
302 302 302 302 303 302 301 303 305 305 305 303 304 304 303 304 306 304 301 301 302 300 299 303 306 304 303 303 304 306 307 308 309 309 308 309 309 308 308 307 306 306 306 306 305 304 307 310 303 303 312 310 301 298 298 296 297 303 307 304 302 302 303 304 305 305 306 310 309 307 311 316 313 309 309 309 309 309 308 307 307 308 308 307 307 307 308 310
302 300 301 304 304 301 300 303 304 305 305 303 304 305 303 304 306 304 302 303 304 302 300 303 306 304 302 303 304 305 306 306 307 307 305 306 307 305 305 304 304 307 307 305 306 307 308 308 306 308 314 311 304 301 301 299 299 305 309 309 306 304 304 306 307 307 310 312 311 310 314 316 311 309 310 310 309 309 308 307 308 309 309 309 308 308 309 310
302 299 300 304 307 303 301 302 303 304 306 305 305 305 304 306 307 305 304 303 303 303 302 303 306 304 303 304 305 305 305 304 303 302 301 302 302 301 303 303 302 305 306 305 306 306 307 308 308 308 311 312 308 303 303 306 309 309 306 307 309 308 305 305 306 307 309 311 313 315 313 310 309 309 309 309 309 309 308 308 307 307 307 307 307 308 308 309
Wind_Speed
10 10 10 10 10 9 9 9 8 8 7 7 7 7 6 6 5 5 5 5 6 6 7 8 9 10 11 12 14 16 18 17 14 11 4 2 4 6 8 8 10 11 12 12 13 12 10 9 8 4 4 4 4 3 6 8 5 4 6 8 10 12 11 8 10 9 7 8 6 10 10 11 9 5 7 8 11 11 10 10 9 12 12 13 21 29 27 23
10 9 10 10 10 10 9 9 8 8 8 7 7 7 6 4 4 4 5 5 6 6 7 9 10 11 12 13 14 16 19 17 13 8 2 3 4 7 7 9 10 12 12 12 12 11 9 9 10 8 4 4 3 4 6 6 6 7 5 8 12 9 7 8 10 11 9 7 9 10 9 10 11 10 8 7 10 11 10 9 9 12 11 13 20 27 24 23
10 9 10 10 10 9 10 9 8 8 8 7 6 6 5 4 4 4 4 5 6 6 7 9 10 11 12 13 15 17 18 14 9 3 6 2 4 7 8 9 11 11 11 12 11 11 10 10 11 8 4 4 4 5 6 5 7 8 5 10 11 6 7 10 13 15 9 8 13 11 9 8 7 8 6 9 12 11 11 10 9 10 10 11 13 21 23 22
10 9 10 10 10 10 9 9 8 8 8 7 5 5 4 4 4 3 4 4 5 6 7 9 10 12 13 13 15 18 16 9 3 5 5 3 5 8 9 10 11 12 11 12 12 11 11 11 11 8 5 4 5 6 7 7 6 6 9 12 5 4 10 12 15 11 4 9 10 7 9 9 5 5 6 12 12 8 9 10 11 13 14 13 12 16 19 19
10 9 10 10 10 10 10 10 8 8 8 6 4 4 4 4 4 3 3 4 5 6 8 9 11 12 13 14 15 16 12 4 3 6 2 5 7 8 9 10 12 12 12 12 12 12 11 10 9 7 5 5 5 6 7 9 7 6 12 14 6 6 9 10 11 2 2 8 8 5 7 8 7 4 6 12 8 5 8 9 11 15 15 15 15 17 17 16
9 9 10 10 10 10 10 10 9 8 7 5 4 4 4 4 4 3 3 4 5 6 8 9 11 12 13 15 15 13 8 2 4 3 4 6 7 9 11 12 12 12 11 11 12 11 10 9 8 6 5 5 7 8 8 9 9 8 11 12 11 11 9 8 5 4 4 5 8 9 9 8 8 5 4 8 3 1 7 12 14 15 16 18 19 19 16 14
9 9 10 10 10 10 10 10 8 8 7 5 4 4 4 4 4 4 3 4 5 7 8 10 11 12 14 16 14 8 5 2 5 4 8 8 8 10 12 13 12 11 10 11 11 9 9 9 8 6 6 7 8 9 9 9 10 12 11 10 11 12 13 8 1 3 3 5 4 7 12 11 11 8 5 8 6 5 11 16 18 18 19 19 17 17 17 14
9 10 10 11 10 10 10 10 9 8 6 5 4 4 4 4 4 4 4 4 6 8 9 10 11 12 13 14 11 5 3 3 5 5 9 9 8 9 11 12 12 10 9 10 11 9 9 9 9 7 7 8 8 8 9 10 11 13 12 9 9 9 12 6 2 1 2 4 3 3 12 12 11 10 7 9 8 7 12 16 18 19 18 16 13 14 17 16
9 10 10 10 10 10 11 10 9 8 6 5 4 5 5 5 4 4 4 5 7 8 9 11 11 11 11 9 7 4 1 2 5 6 7 8 10 11 12 12 12 10 9 10 12 11 8 7 8 8 8 9 10 10 8 8 8 10 11 9 9 8 7 4 4 1 1 4 1 4 9 9 8 11 8 8 10 8 10 13 13 16 16 14 13 13 15 15
10 10 10 10 11 11 11 11 10 9 6 5 4 5 6 5 5 4 4 6 7 8 9 11 11 10 9 7 6 4 4 3 4 8 8 9 12 13 13 12 12 10 9 11 12 12 8 7 9 9 10 9 9 10 9 9 7 8 9 10 12 10 5 3 6 5 4 4 2 6 7 9 6 7 4 7 11 9 10 11 10 12 13 14 13 13 14 13
10 11 10 10 11 11 12 11 11 10 7 6 5 6 6 5 5 4 5 6 7 8 10 11 11 8 8 8 5 3 6 6 6 9 10 11 12 12 12 12 11 9 9 10 11 12 11 11 11 8 7 6 8 9 9 9 9 10 8 7 12 9 4 4 7 8 7 4 3 3 6 8 3 2 5 10 12 11 12 11 10 10 10 12 12 12 13 14
10 11 11 11 11 12 12 11 11 10 7 6 6 6 6 6 5 5 6 7 7 9 11 11 9 6 8 8 5 2 8 8 8 11 10 10 11 11 13 12 9 9 9 9 11 12 11 10 9 7 6 6 8 7 6 6 8 11 8 6 8 5 4 7 7 10 9 6 8 7 5 3 1 4 10 13 11 11 12 11 10 10 10 11 11 10 11 14
10 11 12 12 12 12 12 12 11 9 6 7 8 7 6 6 5 6 7 7 8 10 11 11 8 5 7 5 2 4 10 9 9 10 9 8 10 12 14 12 8 8 10 10 11 12 10 7 7 8 8 8 8 6 7 7 6 8 5 2 4 3 6 9 8 10 9 8 14 11 2 2 4 9 12 11 10 12 11 10 10 9 9 9 9 10 9 12
11 11 12 12 12 12 13 12 11 7 6 8 8 7 7 6 6 7 7 9 9 11 11 10 6 4 5 4 1 6 12 10 8 9 8 8 11 12 13 10 7 8 9 10 10 11 10 7 7 7 7 8 8 8 10 6 2 3 3 2 3 5 6 8 10 11 9 8 14 10 4 4 5 9 11 9 10 12 11 10 10 9 8 7 8 10 9 11
11 12 12 12 13 13 13 13 10 6 7 8 8 7 7 7 7 7 8 10 11 12 11 9 6 4 5 3 2 7 11 9 8 10 9 8 9 11 12 10 7 8 8 8 9 10 8 6 6 5 6 8 8 7 7 5 1 2 3 2 4 5 5 7 9 12 8 6 10 8 4 4 5 8 9 9 9 10 11 10 9 9 8 7 7 8 9 10
11 12 12 13 13 13 14 13 10 6 7 7 7 7 7 7 8 8 10 11 13 11 7 7 6 5 5 2 1 7 9 9 12 12 9 8 8 10 12 12 10 10 8 8 8 8 8 6 5 4 5 7 7 6 5 4 2 2 4 4 5 6 4 5 6 9 10 8 8 6 4 4 5 7 8 9 10 9 9 10 10 9 8 8 7 7 9 9
12 13 13 13 14 13 14 13 9 6 6 6 6 7 7 7 9 10 12 13 14 11 6 7 7 4 4 2 3 6 9 12 14 12 11 10 8 9 10 9 9 8 7 8 8 7 7 5 3 3 4 5 5 5 4 5 5 3 4 3 4 8 7 4 1 3 10 12 8 4 3 5 8 9 9 10 10 10 9 9 10 9 8 8 7 7 8 9
12 13 13 14 13 14 14 11 7 5 4 4 5 6 7 9 11 13 14 12 11 8 6 9 8 3 3 4 7 9 12 16 17 14 11 9 7 7 7 7 7 7 5 6 7 6 5 4 4 4 4 4 4 5 5 6 5 4 6 3 3 8 9 7 3 3 11 11 7 6 4 6 10 9 9 9 10 10 9 9 9 8 8 7 8 7 8 9
13 13 13 14 14 14 13 8 5 3 2 2 3 5 8 10 12 12 11 8 5 3 2 3 3 2 4 8 10 11 15 16 13 9 6 5 6 7 8 8 7 6 4 3 5 6 4 2 4 4 4 6 6 6 7 8 6 3 4 4 4 7 8 8 4 5 10 9 7 9 6 8 11 9 9 9 9 9 9 9 8 7 7 7 7 7 8 8
13 13 13 14 14 12 10 6 3 2 1 1 1 5 6 6 5 3 4 4 2 2 2 1 1 2 5 8 8 12 16 11 5 5 4 5 6 6 6 7 5 4 4 4 3 4 5 3 4 5 6 6 4 4 5 5 6 3 2 4 5 6 6 7 5 5 8 7 7 9 8 9 10 9 9 9 8 9 10 10 9 8 7 7 7 8 9 8
13 13 14 14 13 10 6 4 3 2 2 2 2 4 3 2 2 1 2 3 2 3 3 2 1 3 8 10 8 8 9 6 5 6 4 6 2 2 1 4 4 4 5 7 3 1 3 4 7 6 4 3 2 4 4 2 5 3 1 3 4 3 2 2 6 6 6 5 5 7 9 8 9 9 8 8 9 9 10 11 11 10 9 8 9 9 10 8
13 14 15 14 13 7 3 3 2 3 4 3 2 3 2 3 1 1 1 3 2 3 4 4 2 4 7 8 5 3 2 4 6 3 1 6 2 2 1 2 5 5 3 5 3 1 4 6 7 4 3 4 5 5 4 3 4 2 1 3 4 4 1 2 4 6 3 3 5 7 8 7 7 7 7 9 8 6 8 9 10 12 10 9 10 11 11 10
13 14 15 14 10 5 1 2 2 4 4 3 3 3 2 2 1 2 1 3 2 2 4 4 2 3 5 2 1 3 3 3 5 2 3 6 3 2 2 4 6 6 2 4 5 3 4 3 4 5 5 7 4 1 1 2 3 3 4 4 4 7 4 1 1 5 5 3 5 8 7 4 5 6 5 6 5 4 6 6 7 8 9 9 10 11 12 12
13 14 14 12 8 2 1 2 3 3 3 2 4 2 2 0 2 4 2 2 2 1 2 1 1 3 3 3 2 2 3 3 4 4 5 5 4 1 1 3 4 5 3 1 2 3 5 4 7 6 5 4 2 2 2 2 3 4 6 6 7 7 6 4 3 5 7 4 5 9 6 2 3 6 6 5 5 5 6 7 7 6 7 8 9 9 10 11
13 14 13 11 5 1 2 2 2 2 2 2 3 2 2 1 3 4 2 2 2 1 1 1 2 2 3 3 3 2 2 3 4 4 4 3 4 2 2 2 2 3 2 3 3 3 4 4 7 6 2 1 2 1 1 1 3 2 2 5 9 9 8 11 8 5 4 1 3 6 4 1 3 6 7 6 6 7 7 8 8 8 8 9 9 9 9 9
14 14 13 9 3 2 2 1 2 2 2 2 1 2 1 1 4 5 2 2 1 1 1 0 3 2 4 1 3 1 1 1 3 4 2 1 2 2 3 1 1 3 2 1 1 2 2 5 6 5 2 2 1 0 1 2 3 3 2 2 8 10 11 14 11 5 3 2 2 3 3 2 2 4 6 6 7 8 8 9 9 9 9 9 9 9 9 9
14 13 11 7 1 2 1 1 2 2 1 1 2 3 2 3 4 5 1 1 0 2 2 1 1 2 3 3 3 3 2 3 4 3 4 1 1 3 3 3 2 4 2 0 1 1 4 8 8 6 2 3 2 2 3 4 1 4 3 4 6 9 10 10 8 4 3 4 4 1 0 1 1 4 6 7 7 8 8 9 9 9 9 9 9 9 9 10
13 12 9 5 1 1 1 1 1 1 1 1 2 2 3 3 4 3 1 1 1 2 1 1 1 2 4 8 5 2 3 3 4 1 5 3 1 3 2 2 2 6 6 2 2 2 4 6 7 6 3 2 1 4 5 5 2 4 5 6 6 6 7 5 4 4 4 5 3 2 2 1 2 3 6 7 8 9 10 10 10 10 11 11 10 10 10 9
12 11 7 3 1 0 1 0 0 0 1 1 1 1 2 2 3 1 1 2 1 0 0 0 2 2 5 8 3 1 3 1 0 2 3 4 2 2 1 1 1 5 7 6 2 2 3 2 3 3 2 2 2 5 5 3 2 6 7 8 7 6 5 4 4 4 3 4 4 3 2 1 2 3 6 7 7 8 9 9 9 9 11 12 11 10 10 9
10 9 5 2 2 2 1 1 1 1 1 1 1 0 2 1 1 0 1 2 0 0 2 1 2 3 6 8 3 5 6 1 2 3 2 2 3 2 1 1 1 2 3 4 3 1 2 1 1 1 1 2 4 5 3 3 8 8 7 7 6 4 4 4 3 3 3 3 3 4 3 3 2 3 5 5 5 7 9 8 9 9 9 10 10 10 10 10
9 8 3 1 0 1 1 2 3 2 2 1 1 1 1 1 1 1 1 1 1 1 2 2 3 3 6 6 3 5 7 4 4 3 2 2 1 1 4 3 1 1 1 2 1 0 3 2 1 2 1 2 3 3 4 6 7 5 3 2 3 3 3 2 2 1 2 2 2 3 4 3 0 2 5 4 4 9 9 10 12 12 11 10 10 10 10 10
8 6 2 0 1 2 1 1 3 3 2 2 1 1 1 1 1 1 1 1 1 2 1 1 3 4 6 6 3 4 6 4 4 3 2 3 2 3 5 5 4 2 1 3 2 1 2 1 3 2 1 3 3 2 4 5 5 3 2 1 0 2 1 2 2 1 1 1 2 2 3 1 2 2 7 6 6 10 9 10 12 12 12 11 10 10 10 9
7 4 3 2 1 3 1 2 4 4 3 2 0 1 1 1 1 1 1 1 1 1 0 2 4 5 6 6 4 4 3 3 3 5 2 3 4 3 5 7 6 3 1 3 3 3 1 2 3 4 1 4 4 1 2 3 4 3 1 2 2 1 1 2 2 1 2 2 0 2 2 0 1 2 6 5 5 6 6 10 13 13 12 12 11 11 10 10
5 3 2 3 1 1 1 3 4 4 4 1 1 1 2 1 2 1 1 1 1 2 1 1 4 6 4 3 2 2 2 3 2 5 4 3 4 4 3 6 8 3 2 2 2 3 2 1 4 5 1 4 4 1 0 1 1 1 1 1 2 1 1 2 1 1 3 2 0 1 1 1 1 0 2 4 6 6 6 7 12 12 11 10 9 9 10 10
4 3 3 2 2 0 1 4 5 4 2 1 1 1 1 0 1 0 0 1 0 1 2 0 2 5 2 2 2 1 1 1 3 4 3 3 3 4 5 4 6 4 1 1 1 1 2 1 2 0 1 2 2 1 2 1 1 1 1 2 1 0 0 1 1 2 2 3 2 1 2 2 1 1 1 4 6 6 7 8 9 10 10 10 9 9 9 9
3 3 2 0 2 1 1 4 4 2 1 1 1 1 0 0 1 1 1 1 1 2 4 3 1 2 3 1 2 1 2 2 4 4 1 3 3 4 4 3 3 4 2 1 3 1 1 2 2 1 1 3 3 2 2 1 1 0 1 2 0 2 2 2 2 1 0 3 1 0 2 1 1 2 1 4 7 6 6 7 8 8 9 10 9 8 9 9
1 1 0 2 3 1 2 3 2 1 1 1 1 1 1 1 1 2 2 1 1 1 3 2 1 1 3 2 2 5 3 1 3 4 2 2 2 3 5 3 2 2 2 2 1 1 1 2 2 1 2 3 3 2 2 2 1 1 2 1 1 3 3 1 1 2 2 4 2 1 4 2 0 1 2 4 7 6 5 7 7 7 7 8 7 6 7 7
1 2 1 3 3 2 2 3 1 1 0 1 1 1 1 0 2 3 2 1 1 1 1 1 1 1 2 3 3 5 5 3 4 4 3 3 2 1 4 3 3 4 2 3 1 1 1 1 2 1 1 2 1 1 1 1 3 2 2 2 1 2 2 1 0 0 1 4 3 2 5 2 2 2 3 5 8 7 7 7 7 7 6 6 6 5 5 5
2 2 1 3 4 3 3 2 1 1 0 1 1 1 1 0 1 2 2 2 1 1 1 0 0 1 1 2 3 3 4 3 4 4 2 3 3 1 3 2 5 6 5 1 1 2 1 1 1 2 3 2 1 3 3 3 2 2 3 2 1 1 1 1 1 1 1 3 3 4 4 3 3 2 2 4 6 8 8 7 7 7 7 6 6 6 6 5
3 2 1 3 4 3 4 3 2 1 0 1 1 0 1 1 1 0 2 2 1 1 2 1 1 1 1 1 1 2 3 2 4 3 2 3 3 2 3 2 5 8 8 3 1 2 2 1 1 2 0 2 2 2 2 2 3 2 3 4 4 2 0 0 0 0 1 2 3 4 4 2 3 4 4 5 5 4 5 6 6 6 6 6 6 6 6 5
2 1 1 4 5 4 3 2 0 0 0 0 1 1 1 1 1 1 1 2 1 1 2 1 2 1 1 1 1 1 3 3 3 2 2 3 2 1 2 2 4 7 6 3 1 2 3 1 2 3 2 2 1 1 1 1 2 2 3 3 3 3 1 2 2 1 1 2 2 4 4 1 3 3 4 5 5 5 4 5 7 6 6 7 6 6 6 5
1 0 1 3 6 5 1 0 1 1 0 0 0 1 0 1 0 1 1 1 1 1 1 1 2 1 2 0 1 2 3 3 3 2 1 2 1 0 2 4 4 4 2 3 3 1 1 2 1 1 1 2 2 1 2 2 2 1 1 2 3 2 1 2 2 2 2 2 1 4 4 1 2 3 4 4 5 5 5 6 7 6 6 6 6 5 6 5
1 1 2 3 5 3 1 0 1 1 1 1 2 1 1 1 1 1 2 1 0 0 1 0 1 0 1 1 1 2 3 2 2 1 0 2 1 1 2 5 5 3 1 2 4 1 1 1 2 2 1 2 2 2 1 2 2 2 1 1 2 1 1 2 2 2 2 3 2 3 4 1 2 2 2 2 3 3 3 4 5 6 6 6 6 5 5 5
0 2 2 2 3 2 1 1 1 2 2 0 1 1 0 0 1 1 2 2 1 0 0 0 0 1 0 1 1 1 2 1 2 2 1 2 2 1 2 3 4 3 1 1 2 2 2 2 2 2 2 3 2 1 1 2 2 2 3 3 3 4 3 1 2 1 3 2 0 4 3 1 2 1 1 2 3 4 4 1 3 6 6 6 6 5 5 5
1 2 1 2 3 2 1 1 0 3 3 1 1 1 1 1 2 1 3 1 1 1 0 0 1 1 1 1 0 1 0 1 1 2 2 1 2 2 2 2 2 2 1 1 3 2 2 2 2 2 2 2 1 2 2 3 3 3 4 4 5 6 7 3 1 3 4 2 1 4 2 1 1 0 2 3 4 6 5 3 3 5 5 5 6 6 6 5
1 1 1 2 1 1 1 0 0 2 4 3 1 2 3 2 2 1 2 2 2 1 1 1 1 2 1 1 1 1 1 2 2 2 3 2 2 2 2 2 2 1 1 3 5 1 3 2 3 4 3 3 2 2 1 1 3 4 4 6 5 6 6 3 2 3 1 1 3 2 1 2 2 3 3 3 5 6 4 4 4 4 5 5 5 6 6 6
1 1 2 3 0 1 1 2 2 2 3 4 2 2 5 3 2 1 1 2 1 0 0 1 1 1 1 1 0 1 1 2 3 2 3 3 3 2 1 2 2 2 2 3 4 2 2 2 2 1 2 4 4 3 1 1 2 3 4 6 5 6 6 5 4 1 1 3 3 1 2 3 2 3 4 3 4 5 4 3 4 4 4 4 5 6 6 6
1 1 1 1 1 2 1 3 6 3 3 4 1 1 5 4 3 2 1 1 1 1 1 1 1 4 4 1 1 0 1 0 1 1 2 2 3 3 2 3 2 2 1 1 1 2 2 1 1 1 2 4 5 3 1 2 3 4 4 5 5 4 5 5 3 1 2 4 4 1 3 1 4 3 2 1 3 5 5 4 3 3 3 3 4 5 6 6
1 1 1 1 1 2 1 2 6 6 3 3 1 2 5 6 6 3 1 1 1 2 2 1 4 6 5 2 2 1 1 1 1 1 1 2 3 3 2 3 4 2 1 3 2 2 2 0 1 1 2 4 4 3 3 3 3 4 5 6 5 3 3 3 2 2 4 3 4 2 2 5 7 5 4 2 4 5 3 2 2 2 2 3 4 5 6 6
1 1 0 1 1 2 1 1 4 5 3 2 2 3 4 6 6 4 3 3 2 2 4 2 5 3 3 4 4 1 1 1 1 1 1 2 2 2 2 1 3 4 3 4 3 1 1 2 1 1 2 2 3 3 3 2 1 4 7 6 4 3 4 2 0 2 2 1 1 1 2 5 5 1 1 2 4 5 4 2 2 3 4 4 3 3 5 5
3 4 2 1 2 3 3 2 4 4 3 3 3 3 3 6 7 5 3 3 1 2 6 6 3 2 2 1 3 2 1 2 1 2 1 1 1 1 0 0 2 5 5 4 3 2 3 2 0 2 4 3 2 1 2 0 2 2 6 4 1 1 2 0 2 3 3 3 3 4 4 3 4 3 4 3 3 4 2 1 1 2 3 5 4 5 6 6
3 4 3 0 1 2 3 2 3 3 2 3 4 4 2 4 6 7 4 1 2 1 2 3 5 3 1 3 4 3 2 0 0 2 3 2 2 3 2 2 2 2 2 3 3 2 2 2 2 3 3 4 4 2 4 4 3 2 4 2 3 4 2 1 1 2 4 4 5 3 1 1 2 4 5 2 1 1 1 1 1 1 2 2 4 5 5 5
Wind_Direction
11 8 6 4 3 3 2 1 358 355 349 347 346 344 347 346 354 3 11 22 25 22 19 16 10 5 359 354 354 347 339 336 325 305 288 76 20 327 327 335 331 338 342 336 329 321 320 313 303 312 303 266 209 213 236 239 235 216 220 230 230 225 218 204 221 227 216 226 171 148 161 143 133 109 113 104 95 102 87 79 78 65 61 79 109 127 135 142
10 7 5 3 2 0 358 357 355 350 345 346 345 343 346 348 357 8 14 24 27 21 13 10 6 360 353 348 347 341 334 331 312 298 82 93 325 332 340 339 335 344 347 335 330 329 325 315 323 340 317 267 233 204 204 213 213 214 221 230 230 226 212 204 226 242 235 195 148 160 171 146 143 138 138 130 121 123 112 107 97 87 85 88 109 125 132 141
9 6 4 3 0 358 355 351 350 344 338 339 340 339 341 345 354 6 18 23 21 13 4 0 357 352 348 343 340 336 330 321 310 353 87 70 340 349 340 336 334 342 342 324 318 318 314 308 310 311 286 268 263 230 207 194 207 219 220 232 232 217 224 218 218 243 253 158 155 176 155 137 142 140 153 138 138 149 144 145 134 126 129 118 118 124 131 142
7 5 3 2 358 357 353 346 341 336 330 325 329 337 334 336 344 353 9 16 11 2 355 350 346 346 343 338 336 334 325 310 336 84 88 4 344 343 336 337 333 335 332 315 309 302 295 294 290 282 272 266 257 247 231 210 210 214 217 235 242 197 227 226 218 238 253 154 160 173 138 130 128 127 148 136 142 168 167 166 151 147 144 135 129 128 135 144
5 3 1 359 357 355 350 346 341 334 328 318 327 335 325 327 333 335 351 2 360 351 345 341 338 338 335 332 334 330 319 304 93 106 73 328 333 340 337 335 328 327 326 312 304 296 288 284 280 275 265 258 251 249 238 222 220 232 231 241 262 238 232 229 227 286 48 158 145 151 142 128 119 135 159 139 147 192 170 154 137 140 142 141 137 135 142 148
2 0 359 356 356 352 347 347 343 337 332 323 328 322 309 319 324 315 322 342 348 345 339 336 334 332 329 328 329 322 312 350 102 91 359 320 323 342 338 335 331 326 321 305 296 293 287 278 271 267 255 249 245 245 247 232 220 236 245 243 246 244 243 246 245 34 46 136 150 165 147 129 127 143 156 115 72 350 124 121 122 132 139 142 139 138 147 153
358 358 356 354 353 349 346 347 341 334 328 320 313 302 297 305 310 300 307 328 334 336 333 331 331 328 325 329 328 300 273 19 70 18 343 326 325 339 332 331 325 312 303 297 296 290 286 278 267 265 261 253 244 244 252 251 237 236 243 245 245 238 238 251 314 58 84 114 192 177 137 143 149 144 123 94 56 45 99 112 120 127 132 135 138 143 148 152
355 356 354 352 350 345 345 344 339 330 320 311 298 289 291 292 293 292 302 322 327 329 329 327 327 325 326 332 331 294 254 15 38 358 337 331 328 330 325 322 312 296 287 292 295 291 294 288 275 268 262 257 256 256 249 251 249 243 241 244 254 245 234 225 106 49 121 116 280 214 144 154 155 133 109 105 93 83 104 116 124 128 131 135 141 149 150 151
352 354 353 352 348 341 341 341 336 327 310 294 284 282 283 284 283 287 304 316 323 323 326 326 322 323 324 319 308 304 1 26 4 350 332 322 320 322 321 314 307 300 291 294 292 283 278 277 276 272 272 269 267 270 263 255 245 241 243 241 250 251 235 196 138 183 240 118 340 229 154 139 137 110 94 119 113 105 114 120 131 137 138 141 143 150 153 150
350 351 350 350 347 339 339 338 335 323 294 265 263 271 273 275 273 282 301 308 319 320 326 327 320 321 317 306 290 296 29 35 346 343 326 315 318 321 321 314 312 309 299 300 294 284 277 281 286 289 293 286 277 280 278 275 271 257 249 238 239 237 225 193 172 185 206 142 148 221 151 117 124 102 107 140 126 125 125 125 138 140 142 145 143 144 145 138
348 349 347 348 344 338 338 336 334 323 288 255 254 258 261 262 262 279 294 300 314 318 325 323 316 315 299 295 280 285 14 10 333 333 322 315 315 314 315 311 308 304 298 296 291 287 284 285 289 294 291 272 271 275 268 276 291 285 281 265 241 222 210 214 193 189 188 155 151 184 119 112 104 59 138 146 139 141 134 135 142 138 141 141 136 134 134 131
347 345 345 346 340 335 337 334 331 321 284 255 252 251 252 252 257 273 286 296 310 316 323 320 313 307 292 285 252 292 3 353 324 323 315 312 309 304 305 298 288 285 286 284 284 286 288 293 294 281 270 278 275 263 272 302 308 289 286 294 261 221 212 211 199 201 188 157 149 133 91 108 104 98 133 142 145 142 136 140 140 141 144 138 136 130 129 133
344 342 342 342 336 335 336 331 329 318 278 253 250 248 244 242 255 269 282 294 306 316 319 316 308 289 287 292 261 350 354 342 322 313 308 313 308 304 302 288 270 272 274 270 274 281 290 302 292 274 274 287 280 276 306 314 319 294 261 262 269 245 230 207 191 205 197 160 158 152 142 207 130 121 131 140 147 142 141 143 138 145 148 144 144 132 125 132
340 340 340 337 335 335 334 330 328 314 271 255 250 244 238 240 257 267 284 295 303 315 318 312 298 267 271 280 311 347 343 336 324 317 321 324 312 309 305 288 254 250 256 254 265 274 279 283 276 277 275 267 272 296 310 295 308 299 244 143 221 228 220 200 181 186 188 171 173 175 190 176 135 134 137 141 151 148 147 147 142 145 146 147 144 132 128 131
338 338 337 334 333 334 333 332 329 307 268 258 247 239 236 240 257 268 285 297 304 312 314 302 271 245 276 268 263 329 334 330 327 329 332 330 320 313 311 308 278 255 249 245 261 268 264 265 258 263 266 254 257 275 290 275 202 229 226 183 210 221 201 189 182 178 172 176 191 191 170 153 143 149 145 142 154 155 149 148 146 146 146 148 145 133 129 127
337 337 334 333 333 332 332 331 325 299 269 257 241 234 235 246 261 272 286 296 303 305 304 287 240 214 277 304 338 331 337 332 332 333 324 319 317 309 308 310 293 272 260 248 251 252 247 248 244 251 264 262 251 240 259 267 239 217 223 210 200 209 209 188 188 186 165 162 200 202 141 130 146 156 152 149 157 160 151 146 147 149 147 147 146 138 136 132
334 334 334 333 332 332 332 329 320 296 271 251 236 234 240 258 266 272 287 297 302 296 267 265 260 231 250 296 341 332 340 333 332 327 313 306 294 297 306 299 288 276 252 238 230 229 232 224 225 245 240 242 252 240 239 244 241 229 218 235 216 198 198 184 195 202 163 159 183 189 104 111 141 154 156 159 164 164 156 149 151 151 148 147 145 142 145 144
332 334 334 333 332 332 331 328 319 299 279 245 231 244 260 271 271 277 288 298 302 286 249 257 271 272 243 292 324 332 335 326 321 313 307 306 283 283 288 276 289 289 254 231 216 212 213 205 217 238 226 213 229 233 230 232 233 226 214 233 233 193 186 187 187 168 165 161 162 162 126 116 137 149 155 164 170 164 156 151 151 149 147 147 146 148 149 148
332 334 335 333 333 333 332 333 322 313 297 223 229 270 281 277 271 274 278 282 294 277 258 265 264 258 267 297 317 325 324 318 309 295 290 310 294 274 258 260 278 271 265 248 195 192 191 204 227 231 240 223 209 207 220 242 256 265 236 224 213 194 183 179 162 157 165 158 163 169 149 135 147 156 158 164 169 162 152 149 149 148 146 146 149 151 149 150
332 334 334 333 333 333 338 342 331 344 67 159 308 305 294 286 275 267 258 253 221 195 229 255 220 245 271 296 313 323 326 323 292 264 288 321 305 284 250 239 254 238 247 255 184 184 200 213 234 227 242 237 216 213 216 251 269 283 295 249 212 185 169 157 141 170 173 156 174 171 140 143 156 159 160 162 167 164 156 154 156 154 154 154 152 150 150 150
333 334 332 333 333 335 343 344 343 39 108 108 16 321 327 354 322 342 317 275 200 177 221 261 270 258 271 282 295 328 337 315 275 250 299 337 294 291 247 197 246 248 224 233 213 187 224 234 246 237 263 270 228 231 213 227 254 244 303 264 222 163 140 130 131 160 171 146 165 157 133 145 161 157 158 162 168 170 164 162 163 160 158 160 155 152 147 136
331 331 331 331 332 337 346 340 4 107 114 85 339 301 25 56 338 343 339 298 242 184 227 253 240 264 276 265 265 338 321 280 295 235 353 348 218 191 334 218 270 272 215 221 222 240 231 232 250 268 324 268 216 205 206 220 250 234 195 250 215 155 104 16 99 122 123 114 143 144 133 141 154 152 157 167 173 175 166 163 164 161 160 163 162 158 149 137
330 331 331 329 331 339 348 4 69 118 114 60 338 328 62 74 2 26 354 285 269 187 218 247 249 289 303 267 234 331 290 288 319 307 31 350 262 179 314 285 289 290 262 215 222 247 240 237 304 317 302 263 233 99 44 273 265 217 205 234 194 159 143 2 90 104 82 73 126 129 115 114 137 142 155 171 168 156 152 149 154 158 160 162 163 163 154 148
330 331 328 326 330 340 49 72 85 93 107 49 7 46 98 82 352 9 347 267 275 198 193 241 271 275 293 299 281 283 293 304 294 301 20 357 304 34 249 285 309 295 285 253 302 298 269 312 333 296 267 274 301 27 25 331 280 220 208 205 175 160 135 119 140 103 72 49 108 116 99 78 154 154 160 169 160 152 148 145 149 153 154 152 156 164 159 155
330 329 326 325 330 90 98 76 83 85 96 57 40 106 121 344 341 2 355 257 274 211 177 195 197 244 285 274 241 225 326 310 239 271 353 347 304 322 287 300 289 275 341 28 1 287 259 328 336 304 272 324 324 338 50 278 232 189 210 190 158 146 122 120 128 105 78 57 124 120 116 177 194 171 163 160 163 165 161 158 158 156 157 156 159 167 159 155
329 328 327 327 327 126 100 60 136 146 108 70 113 165 163 315 349 11 357 247 260 253 302 209 177 268 323 266 222 254 350 287 228 248 295 292 253 260 286 310 229 281 358 42 261 244 319 356 353 327 283 140 71 289 209 253 215 133 39 58 131 136 129 135 141 122 110 147 103 84 108 135 216 200 169 157 163 165 166 171 169 164 164 163 164 167 162 156
329 328 330 329 309 125 44 58 139 170 132 95 173 189 253 296 0 18 326 242 269 271 290 63 159 292 320 327 322 322 307 307 299 241 203 241 211 195 269 333 335 309 323 189 275 53 355 350 3 351 309 129 97 260 266 315 0 118 102 76 106 128 131 139 139 109 104 114 82 29 168 121 187 193 164 161 167 163 169 178 172 171 172 167 165 167 166 162
330 329 332 331 232 157 14 65 106 197 88 93 178 205 270 313 7 10 299 286 274 281 264 155 296 272 289 307 307 271 274 306 337 270 173 185 188 180 251 348 359 321 341 12 333 37 35 358 357 348 339 94 146 256 284 314 1 105 116 102 92 106 109 107 106 100 118 125 122 235 239 146 148 158 149 164 182 176 179 183 173 173 174 171 170 167 167 164
330 331 334 348 80 79 326 85 321 312 90 89 180 237 304 351 16 15 266 282 287 5 220 269 324 299 315 318 297 279 311 194 70 318 169 179 222 216 243 100 184 319 5 43 37 10 31 356 311 312 339 10 303 276 269 270 106 104 104 95 82 79 77 71 88 95 112 152 178 184 187 174 150 162 159 173 201 193 180 180 176 173 171 172 171 166 166 164
330 333 340 57 58 12 293 190 211 215 118 96 144 62 17 6 317 344 258 269 40 102 247 330 340 297 329 340 330 339 342 282 259 301 234 201 198 214 317 87 177 299 8 47 70 354 286 260 244 319 352 294 291 288 279 112 112 113 100 89 90 83 70 67 62 71 114 186 186 155 190 215 167 183 184 179 190 183 173 171 175 173 167 169 169 167 169 166
336 342 350 109 357 282 241 192 171 159 140 116 139 120 32 246 232 312 266 149 68 321 305 350 332 319 345 349 317 328 336 312 314 340 303 286 198 347 7 31 355 349 315 330 42 298 314 355 335 293 298 286 287 318 2 58 92 103 96 116 124 84 64 78 61 69 161 188 157 163 221 229 138 181 190 189 167 170 176 173 172 172 168 169 169 169 170 165
345 351 6 9 235 218 241 175 153 144 146 125 116 221 292 278 220 250 266 55 18 334 26 336 316 337 335 323 296 318 327 307 325 351 321 325 0 33 43 39 338 333 34 334 335 347 336 333 318 308 286 321 328 329 8 30 33 47 76 262 87 97 112 118 119 165 179 95 125 199 229 236 3 110 156 174 170 167 175 170 166 168 168 169 170 170 168 165
352 1 28 29 233 215 234 157 145 134 132 108 5 252 297 298 259 256 290 351 302 302 15 234 290 311 302 307 317 321 305 249 311 338 337 358 11 45 74 54 16 356 354 331 326 346 326 222 341 6 352 344 1 26 35 28 10 22 35 331 18 132 159 117 140 153 103 76 92 245 247 108 17 77 129 140 131 134 146 154 159 165 169 169 169 168 166 167
358 13 43 32 14 203 180 145 140 126 118 91 290 270 6 323 245 251 256 271 241 270 281 216 305 306 280 274 308 346 314 237 303 348 356 12 15 9 21 36 31 13 295 303 299 342 17 349 354 13 0 346 7 50 91 177 121 50 201 133 57 40 88 119 159 90 110 113 61 264 311 85 145 343 45 84 88 79 81 123 148 159 166 164 161 161 161 167
17 42 62 34 6 214 152 147 140 116 98 315 257 238 348 290 218 176 216 260 33 303 306 16 325 311 298 231 224 115 83 270 337 2 8 25 26 357 340 352 14 13 321 335 319 316 52 1 308 357 195 303 321 225 230 223 130 127 160 89 57 261 68 48 22 60 118 118 66 46 29 28 154 197 356 69 82 77 74 94 123 141 153 155 157 160 161 169
43 37 59 311 284 271 143 151 141 89 26 291 263 251 285 143 305 356 19 313 10 345 318 316 302 312 329 306 269 345 117 202 321 339 22 87 61 0 344 324 353 31 75 3 340 325 55 341 291 158 209 236 220 210 211 174 31 328 51 33 276 160 104 17 15 9 36 99 69 54 92 53 162 149 149 105 91 88 92 96 107 123 140 150 157 162 164 171
44 309 189 208 248 236 145 145 142 73 329 289 296 288 128 129 300 335 5 0 101 41 318 321 47 6 331 327 325 342 346 234 316 337 335 59 66 340 345 326 308 42 116 180 311 349 67 322 272 201 273 244 200 192 200 174 167 0 4 308 237 94 76 54 79 346 6 86 82 92 110 125 229 116 166 138 112 110 118 113 111 116 130 141 147 149 150 156
291 271 213 200 224 206 155 140 146 241 269 269 264 186 133 121 329 343 350 351 101 69 321 322 34 49 351 335 323 332 341 339 346 351 346 359 3 339 355 327 307 3 56 174 192 357 79 297 274 205 226 249 174 69 310 223 194 205 283 273 135 67 25 302 115 315 63 94 109 112 95 57 21 90 163 152 137 138 136 125 127 137 145 144 145 147 143 139
231 256 199 188 200 188 167 166 210 234 256 266 240 145 148 18 13 359 336 338 27 8 331 308 107 112 52 350 331 328 344 354 341 344 12 0 335 24 57 336 303 337 350 224 223 315 257 186 311 247 185 178 7 29 22 334 281 243 282 318 87 128 198 233 277 253 122 109 128 123 86 34 347 345 29 109 127 136 140 143 145 150 154 149 148 154 156 159
226 260 150 159 165 168 179 199 231 207 140 311 342 11 217 88 58 318 328 349 15 14 353 348 358 40 21 21 34 321 315 333 340 351 18 352 332 16 57 18 313 320 326 300 244 321 302 179 345 317 117 88 25 29 39 312 321 344 355 10 7 341 315 112 1 279 121 97 94 93 79 26 308 330 20 54 65 83 116 134 132 130 130 127 136 149 154 163
238 256 155 157 154 158 180 197 217 74 144 14 56 101 196 108 48 256 325 3 349 29 31 333 294 344 39 7 12 332 309 317 341 8 15 6 17 18 28 27 326 316 328 320 300 14 344 330 8 337 344 40 74 55 41 337 324 358 28 19 341 303 318 22 25 352 47 83 103 113 101 14 306 346 24 46 48 37 45 89 106 109 108 108 117 133 144 158
254 211 126 156 165 171 196 128 117 108 55 315 303 338 323 107 18 274 273 350 288 299 54 288 273 330 60 73 354 353 325 316 341 16 16 4 33 318 335 352 321 294 316 326 324 36 5 308 335 303 314 68 119 108 36 12 319 329 21 339 317 307 344 53 41 335 1 46 112 115 97 358 306 358 21 45 60 46 28 55 92 104 102 105 110 113 124 143
227 144 112 147 172 181 222 21 150 138 74 339 265 279 335 57 46 300 269 246 219 176 107 146 252 350 50 59 34 3 348 335 334 351 342 300 292 286 329 339 333 308 284 329 328 7 73 352 341 282 273 80 123 143 77 26 5 13 334 320 0 345 239 187 214 285 25 29 13 76 71 348 303 341 25 66 79 79 49 48 87 103 109 117 121 121 121 126
105 95 98 143 166 173 238 244 149 125 109 48 224 187 269 42 59 307 273 257 279 95 165 291 227 194 187 10 311 327 3 355 302 291 251 268 286 280 295 331 351 348 6 32 325 331 14 17 357 314 331 8 20 4 351 349 13 10 325 341 16 345 330 294 253 315 54 36 93 96 80 314 296 301 167 147 135 120 116 106 92 102 122 135 136 141 142 135
85 76 70 143 168 173 176 281 91 113 122 145 164 173 191 130 121 281 289 266 266 7 5 299 298 262 275 31 332 255 147 161 274 300 286 272 285 254 247 308 346 343 39 197 269 308 41 25 6 41 47 32 353 316 309 319 329 318 318 350 12 359 360 3 304 34 39 346 18 88 115 255 292 62 129 141 126 110 112 127 102 91 108 125 135 147 152 152
177 161 130 143 177 203 167 241 314 118 134 157 178 187 179 138 134 237 299 282 226 215 220 237 303 292 236 174 242 216 174 191 218 285 318 327 313 262 237 293 300 221 238 263 259 257 89 72 40 64 104 149 203 232 213 276 299 296 321 346 357 356 354 359 63 66 44 5 30 41 127 125 110 109 108 117 120 122 138 150 138 125 119 125 137 147 153 158
234 216 158 151 139 244 220 196 177 152 152 169 180 170 169 151 110 137 301 289 235 219 269 320 349 238 186 153 277 194 173 213 227 271 320 304 283 273 262 291 259 197 225 244 215 174 82 56 33 55 160 184 208 226 202 209 261 285 320 327 330 349 5 35 73 90 244 83 75 328 25 70 119 122 111 125 124 118 118 108 112 123 126 132 136 138 148 156
219 351 103 121 123 150 207 199 176 158 139 155 146 157 170 159 142 175 258 292 284 262 234 345 274 232 233 292 15 196 143 18 274 288 320 298 297 317 308 291 276 206 209 286 146 110 85 44 46 199 236 230 215 205 194 226 259 278 286 287 296 337 21 60 87 43 46 100 155 209 36 41 245 272 312 324 89 100 101 98 106 109 111 129 137 149 168 170
236 339 14 357 40 136 222 210 160 146 151 162 170 202 191 179 170 167 111 109 267 242 170 282 268 229 209 166 118 44 41 49 296 281 297 289 300 322 329 317 304 276 275 338 351 118 142 55 81 127 281 257 208 196 209 219 284 298 276 275 288 331 34 67 85 68 82 135 193 213 335 275 252 254 272 322 66 92 96 91 115 119 127 148 160 182 196 190
251 323 179 87 79 128 177 195 140 139 154 164 192 205 199 195 182 148 115 160 227 206 162 220 267 224 153 141 145 132 82 113 207 254 302 311 296 320 2 18 319 312 331 350 335 298 8 21 94 109 334 296 198 205 214 172 61 309 295 296 302 348 16 28 124 107 102 159 211 109 336 286 275 268 94 43 45 67 66 57 120 143 152 160 184 225 226 213
270 330 333 142 130 142 156 160 155 160 167 181 198 184 193 212 190 148 134 164 181 198 184 184 182 117 64 163 192 195 147 108 151 180 153 341 207 166 135 222 328 328 333 347 338 331 8 10 257 47 12 316 241 214 265 219 100 324 318 326 196 192 0 269 205 176 157 130 81 57 30 315 296 350 48 50 48 73 76 1 112 145 160 162 189 226 234 227
249 317 319 119 115 158 172 165 172 186 188 185 181 158 177 218 174 143 147 153 77 356 247 172 152 137 349 267 230 206 167 128 269 181 188 221 179 140 160 180 90 50 343 334 338 340 9 353 332 32 23 300 303 330 298 327 40 9 329 4 166 194 216 204 240 221 199 152 117 102 67 230 282 13 43 18 355 89 221 272 43 317 282 207 214 225 229 229